Simultaneous Nadir Overpasses (SNOs) Predictions

Prediction of SNOs between NPP and TERRA Satellite Orbit:

Table of predicted SNOs for the next 14.0 days since TLE Epoch: 2/22/2013
Index Date (NPP) Time (NPP) Lat,Lon (NPP) SZA (NPP ) Date (TERRA) Time (TERRA) Lat,Lon (TERRA) SZA (TERRA ) Distance(km) Time Diff (sec)
1 02/24/2013 19:11:56 69.15,-110.81 78.34 02/24/2013 19:13:03 69.10,-108.72 78.22 82.98 67
2 02/24/2013 20:02:22 -68.20, 57.79 102.67 02/24/2013 20:02:47 -68.21, 57.82 102.66 2.28 25
3 02/24/2013 20:53:05 68.03,-134.69 77.14 02/24/2013 20:52:15 68.05,-134.73 77.17 3.03 50
4 02/27/2013 11:28:38 68.28, 6.13 76.42 02/27/2013 11:29:48 68.30, 6.15 76.43 2.43 70
5 02/27/2013 12:19:19 -68.12, 173.64 103.76 02/27/2013 12:19:19 -68.14, 173.60 103.74 2.63 0
6 02/27/2013 13:10:01 67.90, -18.77 76.01 02/27/2013 13:08:48 67.91, -19.02 76.03 10.63 73
7 03/02/2013 03:45:35 68.25, 121.92 75.38 03/02/2013 03:46:18 68.26, 121.99 75.38 2.88 43
8 03/02/2013 04:36:16 -68.09, -70.56 104.80 03/02/2013 04:35:49 -68.10, -70.57 104.79 1.19 27
9 03/04/2013 19:12:03 -69.08, 69.27 104.78 03/04/2013 19:13:11 -68.95, 71.06 104.98 72.69 68
10 03/04/2013 20:02:32 68.17,-122.22 74.26 03/04/2013 20:02:50 68.16,-122.26 74.25 2.10 18
11 03/04/2013 20:53:14 -68.06, 45.24 105.87 03/04/2013 20:52:20 -68.06, 45.26 105.86 0.76 54
12 03/07/2013 11:28:47 -68.30,-173.92 106.64 03/07/2013 11:29:53 -68.29,-173.89 106.67 2.05 66
13 03/07/2013 12:19:30 68.14, -6.41
